{"data":{"norad_id":56809,"epoch":"2026-05-25T03:03:42.118848Z","epoch_age_seconds":60451,"freshness":"FRESH","line1":"1 56809U 23078AU  26145.12757082 -.00000280  00000+0 -15692-4 0  9996","line2":"2 56809  69.9985 151.5772 0003660 264.8075  95.2667 14.98330729164137","mean_motion":14.98330729,"eccentricity":0.000366,"inclination_deg":69.9985,"raan_deg":151.5772,"arg_perigee_deg":264.8075,"mean_anomaly_deg":95.2667,"bstar":-1.5692e-5,"rev_number":16413,"period_min":96.106952365655,"perigee_km":569.50986679998,"apogee_km":574.59740634595,"semimajor_km":6950.190636573,"source":"CELESTRAK","updated_at":"2026-05-25T13:38:18.159957Z"}}